FW9685 Weather Reports


Display with metric or nautical units.
time (UTC)temp
F
wind
direction
speed
MPH
gust
MPH
rain 1hr
in
rain 24hr
in
rain mn
in
humidity
%
barometer
mb
20260507050058 64 97 10.0 12.0 0.00 0.00 0.00 51 1017.0
20260507044607 64 91 9.0 16.0 0.00 0.00 0.00 48 1017.1
20260507043057 65 84 11.0 16.0 0.00 0.00 0.00 48 1016.6
20260507041600 65 94 12.0 16.0 0.00 0.00 0.00 47 1016.3
20260507040055 66 107 12.0 17.0 0.00 0.00 0.00 46 1015.9
20260507034613 67 106 12.0 18.0 0.00 0.00 0.00 45 1015.4
20260507033055 67 111 15.0 19.0 0.00 0.00 0.00 44 1015.4
20260507031558 68 97 14.0 20.0 0.00 0.00 0.00 43 1015.2
20260507030101 68 110 16.0 23.0 0.00 0.00 0.00 42 1014.8
20260507024600 70 94 13.0 22.0 0.00 0.00 0.00 40 1014.5
20260507023100 72 101 13.0 16.0 0.00 0.00 0.00 36 1014.0
20260507021556 73 113 12.0 16.0 0.00 0.00 0.00 34 1013.7
20260507020059 73 113 11.0 14.0 0.00 0.00 0.00 33 1013.7
20260507014554 74 121 9.0 15.0 0.00 0.00 0.00 32 1013.7
20260507013100 75 128 11.0 17.0 0.00 0.00 0.00 30 1013.6
20260507011557 76 140 11.0 16.0 0.00 0.00 0.00 28 1013.4
20260507010056 77 136 12.0 17.0 0.00 0.00 0.00 27 1013.4
20260507004601 77 163 7.0 12.0 0.00 0.00 0.00 26 1013.2
20260507003101 77 169 6.0 14.0 0.00 0.00 0.00 26 1013.2
20260507001558 77 121 6.0 14.0 0.00 0.00 0.00 27 1012.9
20260507000058 77 137 7.0 15.0 0.00 0.00 0.00 27 1013.0
20260506234603 77 127 7.0 12.0 0.00 0.00 0.00 28 1013.2
20260506233105 77 155 3.0 9.0 0.00 0.00 0.00 30 1013.3
20260506231558 76 111 11.0 14.0 0.00 0.00 0.00 30 1013.2
20260506230058 76 136 7.0 14.0 0.00 0.00 0.00 31 1013.3
20260506224607 76 90 6.0 16.0 0.00 0.00 0.00 30 1013.2
20260506223057 76 112 3.0 6.0 0.00 0.00 0.00 31 1013.3
20260506221558 76 142 7.0 12.0 0.00 0.00 0.00 31 1013.3
20260506220055 75 82 1.0 14.0 0.00 0.00 0.00 33 1013.6
20260506214609 74 34 3.0 9.0 0.00 0.00 0.00 33 1013.6
20260506213053 74 44 2.0 10.0 0.00 0.00 0.00 34 1013.8
20260506211554 73 73 4.0 10.0 0.00 0.00 0.00 35 1014.2
20260506210057 72 121 7.0 11.0 0.00 0.00 0.00 36 1014.3
20260506204624 72 261 4.0 9.0 0.00 0.00 0.00 36 1014.4
20260506203056 71 124 5.0 9.0 0.00 0.00 0.00 38 1014.7
20260506201558 70 109 6.0 14.0 0.00 0.00 0.00 40 1014.6
20260506200058 69 136 7.0 13.0 0.00 0.00 0.00 42 1014.8
20260506194603 69 122 7.0 14.0 0.00 0.00 0.00 43 1014.9
20260506193059 68 89 7.0 12.0 0.00 0.00 0.00 45 1015.0
20260506191554 66 26 7.0 11.0 0.00 0.00 0.00 46 1015.2
20260506190058 64 94 4.0 12.0 0.00 0.00 0.00 49 1015.4
20260506184556 63 115 7.0 15.0 0.00 0.00 0.00 52 1015.6
20260506183059 62 86 9.0 14.0 0.00 0.00 0.00 54 1015.6
20260506181558 61 27 9.0 14.0 0.00 0.00 0.00 56 1015.8
20260506174553 58 54 7.0 15.0 0.00 0.00 0.00 60 1016.2
20260506173054 57 82 10.0 16.0 0.00 0.00 0.00 61 1016.5
20260506171558 57 53 12.0 17.0 0.00 0.00 0.00 62 1016.4
20260506170056 56 92 11.0 16.0 0.00 0.00 0.00 63 1016.4
20260506164558 55 57 11.0 16.0 0.00 0.00 0.00 64 1016.5
20260506163100 55 65 13.0 20.0 0.00 0.00 0.00 65 1016.3
20260506161604 54 55 13.0 18.0 0.00 0.00 0.00 67 1016.3
20260506160055 53 46 15.0 20.0 0.00 0.00 0.00 66 1016.2
20260506154610 53 60 12.0 21.0 0.00 0.00 0.00 67 1016.5
20260506153054 53 33 14.0 21.0 0.00 0.00 0.00 67 1016.1
20260506151555 53 68 15.0 20.0 0.00 0.00 0.00 67 1015.9
20260506150054 53 22 15.0 20.0 0.00 0.00 0.00 66 1015.7
20260506144602 53 47 13.0 19.0 0.00 0.00 0.00 67 1015.8
20260506143052 53 51 13.0 21.0 0.00 0.00 0.00 68 1015.4
20260506141555 53 48 15.0 21.0 0.00 0.00 0.00 69 1015.3
20260506140100 53 52 18.0 22.0 0.00 0.00 0.00 68 1015.3
20260506134549 53 40 16.0 24.0 0.00 0.00 0.00 68 1015.0
20260506133102 54 53 17.0 22.0 0.00 0.00 0.00 68 1014.8
20260506131555 54 34 15.0 21.0 0.00 0.00 0.00 68 1014.0
20260506130054 54 61 12.0 16.0 0.00 0.00 0.00 69 1013.7
20260506124556 55 22 11.0 16.0 0.00 0.00 0.00 68 1013.7
20260506123052 56 46 10.0 14.0 0.00 0.00 0.00 67 1013.0
20260506121551 58 15 9.0 11.0 0.00 0.00 0.00 65 1012.9
20260506120052 59 25 6.0 11.0 0.00 0.00 0.00 63 1012.6
20260506114558 60 33 9.0 12.0 0.00 0.00 0.00 61 1012.6
20260506113059 61 48 5.0 10.0 0.00 0.00 0.00 59 1012.5
20260506111552 62 71 6.0 8.0 0.00 0.00 0.00 58 1012.3
20260506110054 62 86 5.0 9.0 0.00 0.00 0.00 57 1012.2
20260506104558 63 99 7.0 14.0 0.00 0.00 0.00 56 1012.4
20260506103058 64 94 8.0 13.0 0.00 0.00 0.00 54 1012.0
20260506101556 65 96 9.0 13.0 0.00 0.00 0.00 53 1011.6
20260506100056 66 93 9.0 14.0 0.00 0.00 0.00 50 1011.4
20260506094555 67 84 7.0 10.0 0.00 0.00 0.00 47 1011.4
20260506093052 67 90 9.0 12.0 0.00 0.00 0.00 46 1011.5
20260506091554 68 203 4.0 8.0 0.00 0.00 0.00 42 1011.3
20260506090054 68 218 5.0 8.0 0.00 0.00 0.00 43 1011.2
20260506084554 68 206 5.0 7.0 0.00 0.00 0.00 41 1011.0
20260506083059 68 193 8.0 9.0 0.00 0.00 0.00 41 1011.0
20260506081558 69 195 7.0 8.0 0.00 0.00 0.00 41 1011.0
20260506073054 70 219 6.0 9.0 0.00 0.00 0.00 39 1011.1
20260506071554 69 233 6.0 8.0 0.00 0.00 0.00 42 1011.0
20260506061556 69 191 5.0 6.0 0.00 0.00 0.00 39 1011.3